Location: Astronomy Adventures Observing Site
(35.3995°N, 106.1279°W)
Time: 07:11:48
(UTC-06:00)

Hubble Space Telescope - Pass Details

Date: 30 January 2022
Orbit: 533 x 537 km, 28.5° (Epoch: 17 May)

Event Time Altitude Azimuth Distance (km) Brightness Sun altitude
Rises 19:15:14 0° 231° (SW) 2,657 5.3 -21.5°
Reaches altitude 10° 19:17:53 10° 215° (SW) 1,770 3.9 -22.0°
Enters shadow 19:20:42 21° 172° (S) 1,233 2.5 -22.6°
